This is the latest recevied weather packets stored in our database for station/object W0BJ. If no packets are shown the sender has not sent any weather packets the latest 10 day(s).
| Time | Temp. | Humidity | Pressure | Rain* | Wind** | Luminosity | Snow |
|---|---|---|---|---|---|---|---|
| 1777981944 | 11.67° C | 80% | 1012.9 hPa | 2.03 mm | - | - | - |
| 1777981343 | 11.67° C | 77% | 1012.5 hPa | 1.27 mm | - | - | - |
| 1777981097 | 11.67° C | 75% | 1011.8 hPa | 0.76 mm | - | - | - |
| 1777980745 | 12.22° C | 74% | 1012.1 hPa | 0.25 mm | - | - | - |
| 1777980198 | 12.22° C | 72% | 1011.8 hPa | 0.25 mm | - | - | - |
| 1777980144 | 12.22° C | 72% | 1011.7 hPa | 0.25 mm | - | - | - |
| 1777979544 | 12.22° C | 70% | 1011.2 hPa | 0.25 mm | - | - | - |
| 1777979298 | 12.78° C | 71% | 1011.3 hPa | 0.25 mm | - | - | - |
| 1777978943 | 12.78° C | 72% | 1011.2 hPa | 0.25 mm | - | - | - |
| 1777978399 | 12.78° C | 72% | 1010.9 hPa | 0.25 mm | - | - | - |
| 1777978345 | 12.78° C | 71% | 1010.9 hPa | 0.25 mm | - | - | - |
| 1777977744 | 12.78° C | 71% | 1010.5 hPa | 0.25 mm | - | - | - |
| 1777977498 | 12.78° C | 69% | 1010.8 hPa | 0 mm | - | - | - |
| 1777977144 | 13.33° C | 68% | 1010.9 hPa | 0 mm | - | - | - |
| 1777976598 | 13.33° C | 69% | 1010.5 hPa | 0 mm | - | - | - |
| 1777976543 | 13.33° C | 70% | 1010.6 hPa | 0 mm | - | - | - |
| 1777975943 | 13.33° C | 71% | 1010.4 hPa | 0 mm | - | - | - |
| 1777975699 | 13.89° C | 74% | 1010.4 hPa | 0 mm | - | - | - |
| 1777975344 | 13.89° C | 73% | 1010.3 hPa | 0 mm | - | - | - |
| 1777974798 | 13.89° C | 75% | 1010.5 hPa | 0 mm | - | - | - |
| 1777974744 | 13.89° C | 75% | 1010.5 hPa | 0 mm | - | - | - |
| 1777974144 | 14.44° C | 77% | 1009.9 hPa | 0 mm | - | - | - |
| 1777973897 | 15° C | 77% | 1010 hPa | 0 mm | - | - | - |
| 1777973545 | 15.56° C | 79% | 1009.9 hPa | 0 mm | - | - | - |
| 1777972999 | 16.11° C | 81% | 1009.8 hPa | 0 mm | - | - | - |
* Rain latest hour (hover to see other rain measurements)
** Current wind speed in m/s (hover to see current wind gust speed)